Regional Weather Roundup
Issued by NWS

Home | Current Version | Previous Version | Graphics & Text | Print | Product List | Glossary On
Versions: 1 2 3 4 5 6 7 8 9 10 11 12 13 14 15 16 17 18 19 20 21 22 23 24 25 26 27 28 29 30 31 32 33 34 35 36 37 38 39 40 41 42 43 44 45 46 47 48 49 50
000
ASUS43 KBIS 260702
RWRND

NORTH DAKOTA REGIONAL WEATHER ROUNDUP
NATIONAL WEATHER SERVICE BISMARCK ND
200 AM CDT THU APR 26 2018

NOTE: "FAIR" INDICATES FEW OR NO CLOUDS BELOW 12,000 FEET WITH NO
SIGNIFICANT WEATHER AND/OR OBSTRUCTIONS TO VISIBILITY.


NDZ001>003-009>011-017-260800-
NORTHWEST NORTH DAKOTA

CITY           SKY/WX    TMP DP  RH WIND       PRES   REMARKS
WILLISTON      CLEAR     43  30  60 NE5       30.08R
MINOT          PTCLDY    43  32  65 W12       30.00R
MINOT AFB      CLEAR     35  31  82 NW9       29.99R
$$

NDZ018>021-031>035-040>046-260800-
SOUTHWEST NORTH DAKOTA

CITY           SKY/WX    TMP DP  RH WIND       PRES   REMARKS
BISMARCK       PTCLDY    50  32  50 N17G26    29.96R
DICKINSON      CLEAR     44  32  62 N10       30.03R
GARRISON         N/A     41  34  76 N10       30.00R
HETTINGER ARPT CLEAR     44  32  62 N10       30.03R
$$

NDZ004>008-012>016-024-026-027-054-260800-
NORTHEAST NORTH DAKOTA

CITY           SKY/WX    TMP DP  RH WIND       PRES   REMARKS
GRAND FORKS    FAIR      45  33  63 N18       29.83R
GRND FRKS AFB  FAIR      46  31  56 N17       29.84R
DEVILS LAKE    FAIR      42  29  59 N12       29.92R
$$

NDZ022-023-025-028>030-036>039-047>053-260800-
SOUTHEAST NORTH DAKOTA

CITY           SKY/WX    TMP DP  RH WIND       PRES   REMARKS
FARGO          FAIR      46  37  71 SW9       29.79R
JAMESTOWN      MOCLDY    47  33  58 N25G36    29.84R
$$




USA.gov is the U.S. government's official web portal to all federal, state and local government web resources and services.